This is the latest recevied weather packets stored in our database for station/object AE0NK. If no packets are shown the sender has not sent any weather packets the latest 10 day(s).
| Time | Temp. | Humidity | Pressure | Rain* | Wind** | Luminosity | Snow |
|---|---|---|---|---|---|---|---|
| 1777973311 | 9.44° C | 50% | 1008 hPa | 0 mm | - | 0 W/m² | - |
| 1777973007 | 9.44° C | 50% | 1008 hPa | 0 mm | - | 0 W/m² | - |
| 1777972705 | 9.44° C | 50% | 1007.9 hPa | 0 mm | - | 0 W/m² | - |
| 1777972403 | 9.44° C | 49% | 1007.9 hPa | 0 mm | - | 0 W/m² | - |
| 1777972100 | 9.44° C | 47% | 1008.2 hPa | 0 mm | - | 0 W/m² | - |
| 1777971799 | 9.44° C | 48% | 1008.3 hPa | 0 mm | - | 0 W/m² | - |
| 1777971493 | 9.44° C | 45% | 1008.5 hPa | 0 mm | - | 0 W/m² | - |
| 1777971211 | 9.44° C | 49% | 1008.9 hPa | 0 mm | - | 0 W/m² | - |
| 1777970908 | 10° C | 49% | 1009.4 hPa | 0 mm | - | 0 W/m² | - |
| 1777970606 | 10° C | 49% | 1009.4 hPa | 0 mm | - | 0 W/m² | - |
| 1777970304 | 10° C | 48% | 1009.3 hPa | 0 mm | - | 0 W/m² | - |
| 1777970002 | 10° C | 46% | 1008.2 hPa | 0 mm | - | 0 W/m² | - |
| 1777969702 | 10.56° C | 44% | 1008.2 hPa | 0 mm | - | 0 W/m² | - |
| 1777969397 | 10° C | 43% | 1008.6 hPa | 0 mm | - | 0 W/m² | - |
| 1777969094 | 10.56° C | 43% | 1007.7 hPa | 0 mm | - | 0 W/m² | - |
| 1777968793 | 10.56° C | 43% | 1008.1 hPa | 0 mm | - | 0 W/m² | - |
| 1777968493 | 10.56° C | 43% | 1007.9 hPa | 0 mm | - | 0 W/m² | - |
| 1777968210 | 10.56° C | 43% | 1008.4 hPa | 0 mm | - | 0 W/m² | - |
| 1777967898 | 10.56° C | 42% | 1008.5 hPa | 0 mm | - | 0 W/m² | - |
| 1777967617 | 10.56° C | 43% | 1008.5 hPa | 0 mm | - | 0 W/m² | - |
| 1777967309 | 10.56° C | 44% | 1007.4 hPa | 0 mm | - | 0 W/m² | - |
| 1777967007 | 10.56° C | 46% | 1007.6 hPa | 0 mm | - | 0 W/m² | - |
| 1777966704 | 10.56° C | 45% | 1007.4 hPa | 0 mm | - | 0 W/m² | - |
| 1777966402 | 10.56° C | 45% | 1007.6 hPa | 0 mm | - | 0 W/m² | - |
| 1777966099 | 10.56° C | 45% | 1007.8 hPa | 0 mm | - | 0 W/m² | - |
* Rain latest hour (hover to see other rain measurements)
** Current wind speed in m/s (hover to see current wind gust speed)